Orbital Elements at Epoch 2459200.5 (2020-Dec-17.0) TDB
Reference: JPL 13 (heliocentric ecliptic J2000)
Element | Value | Uncertainty (1-sigma) | Units |
e | .1651390129635525 | 6.0931e-08 | |
a | 3.149691342497364 | 2.9175e-08 | au |
q | 2.629554423057503 | 2.0179e-07 | au |
i | 1.156193472623934 | 6.0171e-06 | deg |
node | 156.2922924473337 | 0.00024573 | deg |
peri | 206.9686236647549 | 0.00024614 | deg |
M | 320.639612959415 | 1.8003e-05 | deg |
tp | 2459423.732427257446 (2021-Jul-28.23242726) | 0.00010433 | TDB |
period | 2041.739928263826 5.59 | 2.8368e-05 7.767e-08 | d yr |
n | .1763202036736004 | 2.4498e-09 | deg/d |
Q | 3.669828261937224 | 3.3992e-08 | au |
|
| | Orbit Determination Parameters
Additional Information
|